Regional Weather Roundup
Issued by NWS Newport/Morehead, NC

Current Version | Previous Version | Graphics & Text | Print | Product List | Glossary On
Versions: 1 2 3 4 5 6 7 8 9 10 11 12 13 14 15 16 17 18 19 20 21 22 23 24 25 26 27 28 29 30 31 32 33 34 35 36 37 38 39 40 41 42 43 44 45 46 47 48 49 50
000 ASUS42 KMHX 011713 RWRMHX WEATHER ROUNDUP FOR EASTERN NORTH CAROLINA NATIONAL WEATHER SERVICE NEWPORT/MOREHEAD CITY NC 100 PM EDT MON JUN 01 2015 NOTE: "FAIR" INDICATES FEW OR NO CLOUDS BELOW 12,000 FEET WITH NO SIGNIFICANT WEATHER AND/OR OBSTRUCTIONS TO VISIBILITY NCZ015>017-031-032-045>047-102-103-011800- NORTH COAST CITY SKY/WX TMP DP RH WIND PRES REMARKS EDENTON N/A 84 68 58 W3 30.07F ELIZABETH CITY MOSUNNY 84 68 58 S8 30.07F KITTY HAWK PTSUNNY 83 68 61 S3 30.07F MANTEO SUNNY 81 70 68 S12 30.09S $$ NCZ045>047-081-094-103-104-011800- CENTRAL COAST CITY SKY/WX TMP DP RH WIND PRES REMARKS FRISCO SUNNY 84 66 54 S8 30.11F SWANQUARTER N/A 84 N/A N/A S6G12 30.06S $$ NCZ095-097-098-100-101-011800- SOUTHERN COAST CITY SKY/WX TMP DP RH WIND PRES REMARKS BEAUFORT SUNNY 81 71 71 S13 30.09F CEDAR ISLAND N/A 81 N/A N/A E10 30.15S JACKSONVILLE SUNNY 85 68 56 S7 30.08S PINEY ISLAND SUNNY N/A N/A N/A E10 30.08F WILMINGTON MOSUNNY 84 70 62 SE9 30.08F $$ NCZ011>013-027>030-043-044-078>080-089-090>093-098-011800- COASTAL PLAIN CITY SKY/WX TMP DP RH WIND PRES REMARKS AHOSKIE SUNNY 86 68 54 S6 30.06S CLINTON SUNNY 85 68 55 CALM 30.07F ELIZABETHTOWN MOSUNNY 86 64 46 SE8 30.07F GOLDSBORO MOSUNNY 88 66 48 S5 30.04F GREENVILLE MOSUNNY 88 68 51 SW7 30.08F HAVELOCK SUNNY 86 68 54 SW9 30.09F KENANSVILLE MOSUNNY 86 64 48 CALM 30.08F KINSTON MOSUNNY 88 66 48 S6 30.08F NEW BERN MOSUNNY 86 65 49 VRB3 30.08F RICHLANDS PTSUNNY 86 64 48 SW5 30.08F ROCKY MOUNT MOSUNNY 88 68 51 S9 30.06F WASHINGTON SUNNY 85 66 52 SE3 30.08S WHITEVILLE SUNNY 86 62 45 SE5 30.07F $$ AMZ130-135-150-152-154-156-158-170-250-252-270-ANZ085-086-088-633-658-670-011800- MARINE OBSERVATIONS STATION/POSITION TIME TEMP WIND PRES WAVE SWELL AIR SEA DIR/SP/G HT/PER HT/PER (UTC) (F) (DEG/KT/KT) (MB) (FT/S) (FT/S) CHESAPEAKE LIGHT 1600 71 170/ 18/ 18 1018.6 64 E VA BEACH 1650 74 73 190/ 4/ 6 1019.0 3/ 9 3/ 9 DUCK 1600 78 54 190/ 8/ 10 1018.0 2 E DUCK 1611 64 N/A 3/ 8 OREGON INLET 1600 79 78 170/ 9/ 12 1019.3 13E OREGON INLT 1700 77 N/A 3/ 9 HATTERAS CG 1600 81 79 190/ 3/ 6 1019.2 DIAMOND BUOY 1650 77 81 CALM / 2 1019.8 3/ 9 3/ 9 CAPE LOOKOUT 1700 77 150/ 8/ 9 1018.9 BEAUFORT LAB 1600 77 77 190/ 8/ 10 1018.5 27 SE WRIGHTSVLE 1600 77 150/ 4/ 6 N/A 5 SE WRIGHTSVLE 1608 78 80 180/ 8/ 12 1019.5 225 S CAPE HAT 1650 77 79 CALM / 2 1020.1 4/ 8 3/ 8 41 SE CHARLESTON 1650 79 81 110/ 4/ 6 1019.2 3/ 9 3/ 9 $$

USA.gov is the U.S. government's official web portal to all federal, state and local government web resources and services.